GFSNGP_sfc_rhum_021.txt.gz
RH
32 30 27 27 23 20 20 18 20 16 15 15 15 16 15 14 18 21 21 21 27 32 44 48 45 47 48 44 49 48 58 59 66 71 71 73 76 77 76 77 76 76 77 76
36 26 24 27 24 23 21 20 19 17 17 12 15 16 18 15 16 19 22 20 22 28 37 43 46 49 48 49 48 54 62 62 66 72 76 77 78 80 80 79 79 79 77 77
36 31 30 30 24 21 20 19 18 20 17 14 14 16 19 19 19 20 19 20 22 25 32 40 41 47 47 51 51 60 66 65 67 73 77 79 78 80 81 81 79 81 78 77
32 35 40 21 19 24 23 19 15 16 16 15 16 18 19 17 17 20 20 20 24 18 25 42 34 30 43 46 60 65 67 68 69 73 76 78 79 81 82 78 81 80 80 80
31 32 28 24 21 39 46 25 31 42 22 14 13 14 21 16 17 21 20 21 22 19 22 40 42 42 49 50 58 63 66 70 70 72 75 76 80 81 78 78 79 79 77 81
36 30 33 26 24 41 51 39 55 63 59 48 17 17 15 18 16 16 17 19 23 25 30 36 41 36 48 48 56 63 64 66 68 72 74 76 78 81 79 78 76 69 76 78
46 43 28 23 37 58 61 38 63 63 68 70 63 24 27 35 33 46 46 31 28 38 43 48 50 42 54 52 58 55 57 62 70 73 77 77 81 80 80 80 78 80 79 80
48 47 47 24 29 39 62 65 65 66 72 81 72 65 39 50 60 64 63 57 50 58 63 62 56 55 58 64 58 61 64 67 74 77 69 67 82 82 82 83 86 86 85 82
40 34 35 36 49 57 67 71 69 72 71 79 79 62 58 65 67 64 61 64 64 65 70 69 66 62 69 75 66 65 69 74 75 76 76 76 81 82 79 84 81 85 87 87
52 37 39 39 40 44 62 69 66 70 82 80 80 73 68 65 60 56 54 54 50 53 60 70 69 69 71 70 76 70 70 74 74 76 79 77 68 68 72 74 83 75 87 92
61 55 52 41 39 47 62 63 71 75 77 75 72 68 64 66 69 65 65 63 64 68 70 75 73 74 69 71 69 63 70 72 71 65 74 73 73 66 69 71 69 71 73 86
54 53 69 67 60 61 62 68 74 81 80 86 81 88 88 90 91 89 89 85 85 83 84 85 76 79 79 81 77 73 69 58 54 54 55 61 64 90 100 96 100 100 99 98
71 61 66 65 66 60 64 72 78 83 82 88 91 89 88 92 91 94 87 89 90 90 89 87 82 86 86 86 81 78 77 78 67 80 62 60 74 92 97 100 100 100 100 100
60 70 72 66 70 60 80 76 89 86 79 77 78 78 80 85 81 81 82 80 77 78 81 82 87 92 88 84 80 80 78 99 84 94 96 98 98 98 97 99 99 99 100 100
83 71 74 72 72 93 95 85 91 72 66 70 70 74 74 80 82 85 81 70 69 71 72 72 78 90 87 82 82 79 69 74 78 82 90 89 91 92 93 96 98 98 99 99
77 75 74 85 81 93 97 90 82 73 67 65 72 75 73 72 77 79 71 72 76 81 81 79 79 77 87 86 82 82 77 97 88 74 75 77 80 80 95 97 98 99 98 99
95 92 88 92 82 96 96 89 82 76 73 75 79 76 74 83 80 78 76 65 75 82 82 83 86 80 76 83 85 86 85 83 94 80 86 82 83 87 94 98 98 99 99 99
81 82 90 93 92 96 93 88 77 79 76 69 63 64 71 81 88 89 80 70 69 72 77 83 85 81 79 78 77 84 92 92 89 89 91 91 85 89 95 98 99 99 99 99
85 90 91 97 92 93 92 95 92 78 68 69 74 84 79 71 70 69 69 73 75 78 78 77 88 78 79 85 77 62 67 84 93 96 94 95 92 96 97 96 96 97 97 98
93 94 94 94 91 93 96 91 78 71 66 66 70 75 81 82 74 70 69 77 76 69 68 68 71 71 73 77 79 70 70 68 71 78 83 84 86 88 92 96 92 94 93 92
94 90 86 87 89 86 83 78 66 67 69 70 73 75 75 73 74 73 67 62 70 65 63 69 62 56 59 61 64 68 75 88 76 71 75 88 81 81 86 86 90 86 84 86
89 88 86 85 88 89 84 75 69 67 70 72 71 67 66 66 63 61 60 59 52 69 55 55 57 76 58 60 51 59 72 82 89 91 93 90 87 91 96 97 98 98 92 88
76 78 71 65 68 74 68 67 68 72 72 68 64 64 58 51 48 50 53 53 46 60 46 52 73 77 78 53 53 53 57 69 80 85 86 85 84 86 94 96 97 98 98 98
65 66 64 58 57 60 66 64 59 63 65 64 58 60 54 47 44 38 40 54 61 54 54 62 68 72 61 59 59 60 64 57 51 48 49 63 53 50 49 61 86 94 96 96
61 60 61 59 56 53 56 54 52 52 56 56 52 49 46 42 44 42 41 41 60 48 47 68 72 68 49 47 45 49 57 63 66 59 58 55 49 48 50 52 57 59 74 86
54 51 55 62 54 46 43 44 46 43 41 43 40 37 35 35 36 35 36 44 38 46 38 39 46 45 47 49 47 47 45 46 48 58 74 77 75 71 68 60 54 53 56 55
38 56 46 47 47 45 46 46 44 44 40 38 39 37 34 33 35 36 43 34 34 35 34 34 35 40 37 40 43 45 47 46 58 44 42 47 59 67 70 78 81 77 66 61

GFSNGP_sfc_rhum_024.txt.gz
RH
20 21 18 13 12 12 13 14 15 12 12 11 11 11 11 10 11 11 12 14 16 20 24 29 29 35 40 36 34 33 42 42 52 61 63 64 68 70 69 70 70 70 69 67
28 21 20 19 17 14 13 12 13 12 13 9 10 12 12 12 12 13 13 11 11 13 22 25 29 34 34 40 36 40 46 47 53 63 68 69 71 73 74 72 72 72 70 69
30 21 21 25 19 18 16 15 15 17 16 13 13 13 13 12 12 12 13 13 13 13 15 19 19 28 32 38 39 44 52 54 58 65 70 72 70 74 76 76 73 76 73 70
25 29 38 19 13 14 16 15 14 15 15 14 14 14 13 12 12 12 11 12 14 10 10 12 14 12 25 31 49 51 58 58 62 68 69 70 73 75 77 73 74 74 74 74
30 28 22 18 17 18 20 19 14 15 16 13 13 12 14 11 10 13 13 13 12 10 12 18 17 19 24 33 42 49 56 61 62 63 66 69 74 76 74 73 73 72 72 76
27 32 32 20 14 22 21 29 18 28 27 27 29 23 14 12 9 10 11 12 13 13 14 16 22 20 27 31 38 50 53 56 60 64 67 69 72 77 74 73 71 61 67 70
30 29 22 16 23 33 37 47 39 36 38 42 44 34 37 38 31 25 21 21 20 21 21 24 27 26 31 35 39 43 47 48 57 63 69 70 74 74 74 73 67 73 70 70
30 32 32 15 18 32 47 47 41 41 44 50 50 52 52 48 45 35 28 26 31 28 28 33 39 40 41 52 44 48 50 52 60 66 58 54 76 75 75 74 78 76 77 69
26 25 26 20 24 27 28 35 43 41 37 45 51 56 54 49 44 37 37 38 36 32 43 48 50 48 52 54 52 53 56 60 60 63 63 65 73 76 67 76 63 67 59 61
33 28 30 28 25 24 28 33 31 35 35 43 49 57 59 50 45 46 45 46 43 47 51 61 61 58 62 62 59 61 64 66 64 65 68 65 55 56 57 54 61 57 54 56
44 38 31 27 30 30 30 34 38 36 42 51 58 68 55 51 54 50 51 51 52 53 57 61 62 62 58 60 57 60 62 60 62 56 64 61 64 51 51 56 51 53 54 50
41 33 36 37 31 42 44 45 44 42 48 56 82 76 73 78 80 74 74 72 75 76 72 64 64 68 70 70 67 61 54 43 39 37 38 45 48 54 97 95 100 100 99 76
41 36 35 38 38 41 45 42 38 41 54 85 82 76 79 82 82 91 82 82 81 84 74 74 84 84 80 70 67 67 62 64 47 59 44 44 45 45 47 70 100 100 100 100
47 49 58 43 46 41 44 44 44 50 82 93 86 82 82 78 73 68 68 66 64 64 66 71 81 86 77 64 68 69 70 98 58 53 53 57 63 65 65 75 70 67 89 100
67 64 58 51 48 54 61 58 72 87 88 91 88 81 72 74 73 69 60 56 58 60 62 62 65 76 81 66 68 66 54 53 51 49 50 55 52 52 49 52 62 71 98 100
77 77 68 65 57 63 61 70 86 92 92 92 92 81 68 61 59 59 59 59 62 68 74 76 71 65 66 77 69 63 67 95 78 52 53 54 53 52 50 53 65 88 97 97
87 89 85 74 61 63 79 84 87 92 87 82 92 80 80 70 59 62 61 60 67 71 73 79 85 74 66 62 69 63 63 71 91 74 68 68 58 54 53 54 54 63 77 97
78 84 80 73 77 86 89 96 91 88 72 63 67 67 67 75 76 84 77 67 68 73 73 74 72 72 68 61 51 53 67 74 79 81 69 75 78 76 69 66 69 63 58 90
89 94 90 90 94 96 96 96 92 92 79 67 72 74 70 68 70 69 63 63 65 69 69 67 77 70 66 70 55 42 43 51 68 76 70 84 82 86 90 92 92 96 90 98
92 93 92 93 93 93 95 95 92 94 91 82 77 81 81 67 60 60 61 65 62 56 62 58 54 58 60 63 62 44 48 50 55 59 63 59 60 70 74 84 89 94 96 98
95 93 93 91 92 90 89 86 82 87 90 89 85 83 80 67 59 52 54 50 56 54 55 62 54 42 44 47 45 49 54 57 60 63 68 74 73 76 76 74 75 86 91 94
89 89 87 87 88 91 88 86 83 80 75 72 68 61 60 57 53 52 52 51 46 65 46 45 47 68 50 54 37 38 41 46 58 59 66 72 79 87 92 91 91 95 94 92
61 67 68 66 68 74 71 81 80 70 68 68 57 54 50 40 38 45 47 47 43 59 42 44 68 76 62 38 40 42 41 44 42 47 52 55 54 70 85 93 92 95 96 97
59 55 55 52 51 52 57 56 52 54 55 57 49 50 46 40 40 34 37 50 58 50 44 50 56 70 52 31 32 36 41 47 45 44 40 54 36 37 40 42 59 90 95 95
49 48 47 45 44 41 47 46 42 43 44 45 41 38 37 35 38 35 32 32 50 38 31 56 62 58 32 32 32 33 33 35 40 44 50 52 49 49 45 43 43 42 42 60
44 39 39 46 40 34 33 34 35 34 34 35 33 31 29 28 28 30 30 38 29 37 26 26 28 27 28 30 31 33 34 35 34 33 35 37 41 46 50 49 50 50 49 47
28 47 34 35 33 34 33 35 34 34 34 32 32 30 29 27 28 29 37 24 23 23 23 22 22 28 23 25 27 29 30 30 46 34 34 35 36 36 36 39 42 45 45 46

GFSNGP_sfc_rhum_030.txt.gz
RH
16 13 11 10 10 10 12 12 15 11 10 14 15 14 13 13 16 16 18 19 22 21 30 33 36 39 40 35 39 38 46 54 61 67 68 70 72 73 74 73 72 74 74 72
26 16 14 15 10 10 9 9 10 10 9 10 13 15 15 17 16 17 18 17 19 22 25 28 36 40 40 40 38 41 49 49 57 65 69 72 73 75 76 76 76 75 76 75
35 23 20 20 14 11 10 9 9 12 12 12 14 15 16 15 14 15 13 13 17 20 24 28 28 40 41 42 41 47 51 53 56 64 68 72 72 75 76 78 77 79 77 76
35 31 39 19 13 12 10 9 8 10 11 13 15 15 14 13 13 14 13 17 21 12 18 26 16 17 31 38 52 53 59 58 61 64 68 71 74 76 77 76 78 78 78 79
37 33 26 19 16 15 15 13 9 10 10 12 12 12 16 12 12 13 17 18 18 13 16 30 23 26 30 33 47 52 54 59 60 64 66 70 74 77 76 76 78 77 77 80
36 37 37 23 14 11 12 20 28 16 13 12 12 15 32 38 33 32 30 32 34 30 27 21 30 21 30 32 42 52 52 55 60 61 67 68 72 77 77 77 77 72 76 77
32 37 28 33 18 13 24 57 40 33 23 20 29 41 40 34 37 37 37 35 34 36 38 43 43 37 49 42 40 45 50 52 62 66 67 70 75 77 78 79 77 80 78 77
30 36 44 23 23 38 49 39 35 37 35 37 35 34 35 36 41 43 42 36 31 37 39 39 41 47 54 57 56 55 59 59 67 70 61 59 77 80 80 81 84 84 84 80
28 28 39 26 27 24 23 30 29 33 28 29 32 34 37 43 46 49 43 40 38 41 46 48 50 59 63 70 62 61 64 71 70 73 71 72 78 81 77 82 79 80 77 76
33 29 30 23 19 19 21 23 27 23 25 33 37 34 36 44 49 57 50 50 45 49 49 66 68 66 66 67 63 64 69 74 74 76 77 74 67 69 71 72 74 76 72 72
36 28 26 24 23 22 22 22 24 24 25 33 35 36 38 44 56 57 63 69 68 64 58 63 66 68 65 67 71 65 67 70 73 67 76 74 73 64 69 69 66 63 67 66
34 34 42 42 30 23 24 24 24 26 29 34 34 40 41 52 63 67 66 67 73 70 62 72 76 75 70 68 69 72 72 64 60 58 61 64 67 70 86 94 100 100 100 97
56 50 48 39 31 26 30 28 23 23 26 33 33 33 36 48 67 73 73 70 72 74 80 77 73 67 65 65 67 72 71 71 55 62 56 66 65 68 71 92 100 99 100 100
48 50 55 48 42 34 33 33 36 33 30 29 29 31 30 46 62 72 73 70 73 82 83 76 78 80 64 66 75 74 72 82 54 53 53 57 57 58 52 59 64 66 84 92
72 56 51 48 46 41 38 37 40 37 34 33 32 42 43 54 68 80 75 80 78 79 79 76 79 77 70 70 75 76 62 57 53 54 59 63 58 57 51 56 63 67 68 74
73 70 60 58 53 44 42 39 39 42 38 37 40 54 52 57 75 89 81 82 83 89 82 78 77 66 67 70 70 63 67 80 69 58 56 58 54 53 54 59 60 67 63 67
82 75 68 63 55 51 44 41 42 42 41 43 53 66 73 73 88 95 95 91 90 86 80 86 86 75 63 64 61 57 59 64 72 59 62 64 64 64 65 65 65 70 67 76
62 61 60 62 62 62 58 57 51 60 58 66 78 94 90 97 94 96 84 89 86 77 72 73 73 67 66 67 58 57 60 63 64 66 67 71 71 72 78 80 81 82 80 86
92 95 90 91 89 88 80 90 92 91 92 94 92 95 94 94 95 89 81 70 70 71 68 62 74 65 62 69 58 55 58 62 63 66 67 76 70 65 73 82 88 92 92 93
94 93 91 91 92 95 95 91 90 92 90 92 91 93 96 94 93 92 87 86 84 66 56 55 56 57 58 61 58 48 60 60 61 63 65 60 63 65 66 75 71 81 89 94
94 93 93 95 96 96 95 90 89 95 94 93 94 94 96 95 93 92 95 98 96 87 60 59 57 59 46 45 41 41 43 49 50 50 53 58 58 58 62 65 65 70 75 80
79 90 93 93 93 94 93 93 93 93 92 91 90 91 93 94 92 92 91 94 94 85 88 80 58 67 54 59 48 45 43 43 44 46 49 49 51 55 59 65 67 70 74 79
56 64 62 74 84 91 87 88 90 87 86 85 83 77 81 83 60 70 89 77 72 64 58 57 69 69 58 39 41 44 47 47 48 49 49 48 48 53 56 56 56 62 64 77
52 52 55 54 52 55 62 58 54 61 68 69 65 58 57 47 41 33 34 44 55 45 37 44 53 61 49 32 34 36 37 39 40 40 41 53 42 44 45 46 47 51 56 58
46 46 48 46 48 47 51 52 48 47 49 52 52 46 39 38 39 32 31 32 48 34 27 47 56 52 28 31 31 32 35 34 34 34 36 38 37 38 38 38 39 41 40 41
39 30 34 46 36 31 30 33 33 34 33 35 33 30 27 27 28 29 30 36 24 33 22 22 22 21 22 23 24 26 29 28 28 30 33 36 38 37 37 39 39 40 44 43
29 39 28 27 26 28 26 28 27 28 29 29 29 26 26 24 24 26 34 22 21 21 21 20 20 26 21 22 24 25 26 27 37 26 26 32 36 37 35 38 42 42 43 47

GFSNGP_sfc_rhum_033.txt.gz
RH
33 23 19 16 13 12 13 17 18 15 22 23 26 27 29 28 24 25 28 28 26 29 33 36 38 38 39 41 44 46 63 68 72 72 72 73 75 77 77 68 72 72 79 73
48 25 20 19 12 12 12 12 16 13 16 20 24 29 24 26 25 23 30 33 30 29 32 34 36 39 39 41 42 44 53 63 65 71 72 74 75 76 78 80 71 75 77 71
58 34 27 35 22 12 12 11 12 18 18 23 26 22 22 25 22 21 20 20 26 30 38 46 41 39 42 41 41 44 48 55 62 67 73 74 74 76 76 77 77 75 72 79
60 46 54 33 24 18 12 14 10 11 20 23 28 35 34 27 22 21 23 27 28 24 23 31 44 41 39 42 46 47 49 54 56 67 72 73 74 75 74 73 75 77 78 74
61 52 42 29 26 27 22 48 45 43 22 22 35 46 53 47 47 53 51 51 51 47 48 42 35 39 48 52 52 58 51 56 58 66 68 71 74 74 72 72 73 74 76 78
50 63 57 44 32 29 25 71 43 44 41 23 42 69 69 54 52 53 55 51 48 46 46 52 51 47 50 53 48 50 56 66 69 61 66 69 70 70 70 71 72 74 74 76
43 51 65 35 31 40 53 73 42 37 43 48 58 64 60 53 58 60 60 56 48 50 48 52 52 49 50 55 67 59 63 71 77 74 72 72 71 69 72 73 74 77 79 76
46 55 82 36 30 56 56 38 39 41 41 50 49 51 60 62 65 66 69 58 56 62 64 50 49 47 58 65 63 59 67 73 80 83 70 80 87 81 78 80 82 84 85 84
53 69 43 51 42 30 31 36 38 43 36 48 47 47 52 68 68 65 72 78 73 70 69 88 88 84 79 85 82 72 78 82 85 86 88 83 87 96 87 86 84 92 93 95
54 41 39 36 32 29 31 31 31 32 37 46 51 47 47 49 70 72 70 71 74 80 83 90 86 84 89 87 86 87 76 90 91 94 95 91 96 88 89 96 96 96 98 98
45 48 50 45 52 47 36 34 30 34 36 46 49 53 51 54 84 75 73 75 77 80 84 93 93 92 89 85 86 87 84 91 93 94 94 95 91 96 92 92 93 92 93 92
70 55 73 63 55 51 49 44 44 43 38 40 47 53 50 50 80 89 88 84 83 84 90 93 88 86 84 86 84 88 94 88 90 89 96 92 90 96 100 98 89 90 99 91
75 60 60 57 52 48 50 45 41 48 46 53 47 45 48 51 74 85 88 87 89 92 93 90 89 90 84 84 88 88 89 88 87 82 87 92 94 91 88 97 99 94 94 95
77 76 79 63 61 53 52 54 47 46 48 46 48 48 62 66 77 87 92 87 88 89 87 88 88 88 81 85 92 93 85 80 83 82 73 78 86 90 79 77 77 85 98 90
81 73 74 69 63 58 55 55 54 52 50 50 48 56 59 77 76 90 89 84 86 90 89 88 88 82 77 80 85 87 85 84 79 86 88 88 90 78 86 89 86 91 94 90
78 76 72 77 70 63 61 61 56 58 53 53 56 59 72 79 85 92 96 91 90 91 89 90 88 76 80 85 83 83 86 84 85 83 82 83 81 89 85 88 95 90 90 97
90 83 76 75 71 66 65 62 62 61 59 60 64 73 76 86 90 95 95 94 90 84 82 87 89 80 79 79 80 85 86 79 85 82 84 85 88 89 91 92 93 93 99 100
87 89 88 93 88 76 69 71 79 80 95 95 94 94 94 95 96 94 91 87 86 84 73 72 85 80 81 79 73 75 77 83 81 81 82 84 88 90 92 92 92 94 92 92
87 91 90 94 94 89 85 89 92 92 93 93 94 95 93 92 92 91 90 86 87 92 90 84 84 84 86 84 70 69 68 69 71 73 72 77 75 77 82 87 90 93 94 94
89 88 88 91 92 95 96 93 90 92 91 91 91 94 96 96 95 93 94 98 98 98 94 91 84 72 87 84 81 64 65 65 68 71 70 68 73 75 77 86 81 83 90 94
89 87 90 92 94 93 96 95 92 95 95 93 94 96 96 96 94 94 95 98 97 93 91 90 84 58 55 54 52 53 56 58 62 64 64 67 71 75 77 80 84 80 84 84
87 88 90 90 93 96 96 95 94 92 92 94 93 93 93 95 94 95 96 98 97 88 92 94 93 87 78 67 54 54 55 61 68 65 65 69 74 82 87 88 88 85 86 86
76 80 79 83 87 92 90 89 90 91 93 93 93 93 94 96 95 94 95 92 91 78 87 85 78 79 80 89 86 80 70 60 55 58 60 66 66 65 70 69 71 78 86 84
60 69 68 64 65 59 63 75 78 80 81 80 81 84 92 91 90 85 71 67 67 58 54 52 56 60 57 59 67 56 56 68 73 68 56 56 46 44 47 50 53 58 61 61
62 58 58 54 60 70 62 56 49 56 52 57 48 46 45 47 47 42 43 44 53 43 33 51 57 52 36 35 34 34 34 34 47 44 52 58 51 49 51 54 56 54 55 57
60 58 57 54 49 46 43 41 39 38 46 46 41 41 39 39 36 42 43 46 38 43 32 33 35 33 32 34 35 35 35 36 37 39 43 45 44 52 58 62 61 62 62 56
44 50 40 40 41 44 40 41 43 41 44 44 42 42 39 39 39 39 45 36 35 36 37 33 34 36 32 36 36 38 39 43 50 42 43 46 47 47 51 60 63 64 55 54

GFSNGP_sfc_rhum_036.txt.gz
RH
50 40 40 38 21 17 17 15 17 16 18 16 19 28 26 23 24 27 31 32 33 37 38 40 41 40 48 51 60 67 74 76 78 76 77 80 83 77 75 76 86 72 75 84
52 40 37 28 23 22 13 14 18 19 17 16 19 30 30 33 32 31 33 33 35 36 37 41 41 41 46 49 55 64 72 75 74 79 79 80 82 85 80 79 75 81 81 82
73 48 32 41 34 25 14 14 14 23 18 27 34 52 56 26 24 35 36 34 36 36 36 39 40 39 44 46 48 60 69 70 74 76 82 82 80 83 85 86 82 76 74 80
71 57 54 42 33 36 46 47 46 54 44 49 61 61 62 61 46 41 40 38 37 42 43 48 42 39 40 44 48 52 59 69 71 77 79 80 82 81 82 80 86 86 79 75
70 62 49 49 47 39 51 59 45 51 48 53 51 53 63 62 66 64 57 57 54 51 46 46 43 42 42 45 47 51 54 56 67 71 77 79 81 82 78 80 79 80 81 82
58 75 75 64 44 36 42 69 43 52 62 53 41 82 84 73 77 80 66 58 53 48 53 52 57 59 44 45 48 50 50 54 57 67 71 76 77 77 77 75 77 76 76 78
55 76 70 53 46 32 72 68 43 50 54 62 81 80 79 69 73 81 79 75 71 73 73 58 53 58 66 61 51 48 51 51 60 59 67 68 71 73 73 77 75 77 79 77
75 91 97 61 56 61 49 39 37 47 56 54 50 51 67 72 73 75 80 83 84 90 90 90 85 71 86 83 78 68 75 80 75 68 62 65 71 73 74 74 80 81 82 85
93 94 75 83 87 53 49 44 46 42 52 52 49 46 46 82 74 72 76 79 80 89 92 89 89 90 93 95 95 85 82 82 80 83 84 87 85 83 81 81 79 84 88 94
66 73 60 80 78 62 50 52 41 41 39 53 52 48 46 50 84 77 78 83 85 86 96 97 96 91 94 92 91 92 92 88 92 95 96 94 86 88 84 91 93 95 98 98
65 68 57 60 55 62 53 48 46 44 48 54 48 47 48 53 61 87 86 88 91 96 97 96 94 90 88 90 91 93 93 95 95 97 96 98 99 99 97 95 93 95 97 97
86 75 88 71 55 55 58 52 52 55 52 54 52 51 64 68 73 95 94 95 96 97 96 95 94 93 92 90 94 94 95 97 97 98 98 98 99 94 92 95 100 100 98 87
89 72 72 74 72 64 58 51 52 54 54 55 53 64 73 82 91 94 94 89 95 96 96 94 93 93 93 92 93 93 95 84 96 98 98 99 95 84 78 86 96 98 98 96
84 87 85 80 83 63 57 53 57 56 50 48 47 52 69 80 83 90 95 93 96 97 95 92 92 92 92 90 87 91 86 89 86 82 96 99 93 79 77 81 86 83 96 98
87 89 87 77 70 66 66 62 62 72 64 50 47 52 66 76 80 92 94 95 97 96 95 91 91 90 91 80 85 89 79 77 80 92 87 95 94 84 87 85 86 93 96 99
87 78 72 74 75 73 73 63 71 68 61 65 56 58 72 81 86 93 98 96 97 95 95 95 91 88 90 89 92 93 88 91 87 84 87 88 92 96 94 94 98 99 99 99
95 95 95 84 71 74 72 72 73 78 88 96 94 90 89 89 96 94 94 94 91 87 82 86 88 84 86 89 93 96 88 88 90 90 90 95 95 95 94 95 98 97 97 97
86 89 93 95 96 86 86 96 97 97 92 91 96 96 97 97 98 96 95 89 93 91 83 85 84 86 82 82 86 90 88 86 88 91 91 93 94 89 89 91 92 93 93 94
82 88 88 92 94 93 93 94 92 93 93 93 94 97 96 97 97 98 96 93 98 98 98 93 89 92 91 85 78 78 78 78 77 81 83 84 84 87 89 91 92 93 93 94
87 84 84 88 88 91 95 92 90 92 91 91 92 95 97 97 95 95 95 98 98 99 98 95 94 96 96 93 77 71 73 75 77 80 80 82 86 87 86 89 85 86 90 94
90 89 90 88 90 92 91 93 91 94 92 92 94 97 97 96 96 95 96 98 97 94 95 92 94 96 94 89 86 64 64 66 69 73 78 82 84 84 86 87 86 83 84 82
90 91 90 88 90 92 91 92 92 91 92 92 92 94 94 96 96 96 97 99 97 89 94 96 96 91 94 92 90 78 65 64 68 69 74 79 84 87 89 86 85 87 92 94
91 86 85 90 92 96 94 93 91 88 89 92 93 93 96 99 99 98 97 95 96 92 94 94 87 81 82 95 96 94 86 79 68 66 68 74 76 76 80 81 82 79 78 78
87 91 85 79 83 86 86 86 84 83 88 93 96 92 93 96 96 96 97 90 84 79 88 88 83 76 73 85 68 70 81 78 70 56 53 60 49 52 56 59 59 64 64 66
62 65 69 69 70 71 63 46 43 48 58 52 63 78 79 90 94 94 88 86 81 67 67 69 69 63 58 44 37 39 44 45 45 49 57 58 56 60 62 60 57 58 58 60
61 58 62 54 55 50 46 44 46 51 49 50 49 47 53 53 52 51 60 59 44 49 53 50 50 50 42 41 42 44 46 47 49 48 49 53 58 64 64 62 61 59 56 57
47 53 42 42 44 48 44 46 45 49 51 47 45 42 45 46 45 44 51 40 40 40 39 35 36 44 41 42 44 44 44 49 55 49 52 55 57 60 65 63 61 60 62 61